EW2099 Weather Reports


Display with metric or nautical units.
time (UTC)temp
F
wind
direction
speed
MPH
gust
MPH
rain 1hr
in
rain 24hr
in
rain mn
in
humidity
%
barometer
mb
20260902150034 68 217 4.0 10.0 0.00 0.00 0.00 54 1020.4
20260902144535 68 304 6.0 14.0 0.00 0.00 0.00 56 1020.7
20260902143035 68 257 5.0 15.0 0.00 0.00 0.00 55 1020.7
20260902141537 69 304 4.0 12.0 0.00 0.00 0.00 54 1020.9
20260902140035 68 222 4.0 11.0 0.00 0.00 0.00 54 1020.8
20260902134532 69 283 4.0 10.0 0.00 0.00 0.00 54 1020.8
20260902133032 69 36 4.0 12.0 0.00 0.00 0.00 52 1020.8
20260902131531 69 253 4.0 11.0 0.00 0.00 0.00 55 1020.9
20260902130029 68 206 4.0 9.0 0.00 0.00 0.00 56 1020.8
20260902124529 69 285 5.0 12.0 0.00 0.00 0.00 54 1021.0
20260902123032 69 258 5.0 14.0 0.00 0.00 0.00 53 1020.9
20260902121527 69 214 5.0 14.0 0.00 0.00 0.00 50 1020.8
20260902120027 69 278 4.0 11.0 0.00 0.00 0.00 51 1020.8
20260902114528 69 214 4.0 10.0 0.00 0.00 0.00 51 1020.8
20260902113026 69 253 7.0 13.0 0.00 0.00 0.00 51 1020.9
20260902111535 68 250 4.0 11.0 0.00 0.00 0.00 53 1021.0
20260902110023 67 250 2.0 10.0 0.00 0.00 0.00 55 1021.3
20260902104536 66 240 4.0 11.0 0.00 0.00 0.00 57 1021.3
20260902103021 67 286 4.0 13.0 0.00 0.00 0.00 54 1021.3
20260902101521 68 275 3.0 8.0 0.00 0.00 0.00 54 1021.2
20260902100029 68 231 4.0 9.0 0.00 0.00 0.00 55 1021.2
20260902094522 67 243 5.0 9.0 0.00 0.00 0.00 57 1021.3
20260902093017 67 269 4.0 10.0 0.00 0.00 0.00 55 1021.4
20260902091515 67 259 4.0 12.0 0.00 0.00 0.00 55 1021.2
20260902090013 67 286 3.0 10.0 0.00 0.00 0.00 55 1021.2
20260902084510 67 250 3.0 11.0 0.00 0.00 0.00 54 1021.0
20260902083011 66 246 3.0 8.0 0.00 0.00 0.00 56 1021.0
20260902081513 65 214 2.0 10.0 0.00 0.00 0.00 58 1020.8
20260902080002 64 244 2.0 6.0 0.00 0.00 0.00 60 1020.6
20260902074559 63 254 1.0 5.0 0.00 0.00 0.00 62 1020.6
20260902073056 61 243 1.0 5.0 0.00 0.00 0.00 65 1020.5
20260902071555 60 240 2.0 6.0 0.00 0.00 0.00 68 1020.5
20260902070050 59 221 2.0 6.0 0.00 0.00 0.00 70 1020.4
20260902064550 58 229 1.0 7.0 0.00 0.00 0.00 70 1020.4
20260902063039 58 236 1.0 3.0 0.00 0.00 0.00 70 1020.5
20260902061541 58 253 1.0 5.0 0.00 0.00 0.00 70 1020.2
20260902060037 57 231 1.0 6.0 0.00 0.00 0.00 71 1020.2
20260902054532 57 239 0.0 6.0 0.00 0.00 0.00 71 1020.0
20260902053037 57 211 2.0 5.0 0.00 0.00 0.00 71 1020.0
20260902051530 56 213 1.0 4.0 0.00 0.00 0.00 71 1020.1
20260902050029 56 226 0.0 4.0 0.00 0.00 0.00 70 1020.0
20260902044529 56 285 1.0 6.0 0.00 0.00 0.00 70 1020.0
20260902043029 56 228 0.0 3.0 0.00 0.00 0.00 69 1020.0
20260902041528 56 224 1.0 4.0 0.00 0.00 0.00 69 1019.9
20260902040025 56 210 0.0 5.0 0.00 0.00 0.00 68 1020.0
20260902034525 56 222 1.0 3.0 0.00 0.00 0.00 68 1019.9
20260902033034 56 257 0.0 2.0 0.00 0.00 0.00 68 1019.8
20260902031522 57 233 1.0 3.0 0.00 0.00 0.00 67 1019.9
20260902030021 56 214 0.0 3.0 0.00 0.00 0.00 67 1019.8
20260902024519 56 187 0.0 3.0 0.00 0.00 0.00 67 1020.0
20260902023020 56 224 0.0 4.0 0.00 0.00 0.00 66 1020.3
20260902021518 56 226 0.0 4.0 0.00 0.00 0.00 66 1020.4
20260902020019 56 217 1.0 4.0 0.00 0.00 0.00 65 1020.4
20260902014527 56 223 1.0 5.0 0.00 0.00 0.00 65 1020.3
20260902013014 56 242 0.0 2.0 0.00 0.00 0.00 64 1020.4
20260902011521 57 253 0.0 4.0 0.00 0.00 0.00 64 1020.3
20260902010010 57 236 0.0 4.0 0.00 0.00 0.00 64 1020.3
20260902004509 57 217 0.0 3.0 0.00 0.06 0.00 63 1020.4
20260902003010 57 240 1.0 3.0 0.00 0.06 0.00 63 1020.4
20260902001506 57 235 0.0 4.0 0.00 0.06 0.00 63 1020.5
20260902000006 57 225 1.0 4.0 0.00 0.06 0.00 63 1020.6
20260901234513 57 214 1.0 3.0 0.00 0.06 0.00 62 1020.6
20260901233003 57 232 1.0 4.0 0.00 0.06 0.00 62 1020.7
20260901231501 57 218 0.0 3.0 0.00 0.06 0.00 62 1020.8
20260901230002 57 207 0.0 2.0 0.00 0.06 0.00 62 1021.0
20260901224600 57 201 0.0 2.0 0.00 0.06 0.00 62 1021.0
20260901223113 57 220 1.0 3.0 0.00 0.06 0.00 62 1020.9
20260901221558 57 169 0.0 2.0 0.00 0.06 0.00 62 1020.9
20260901220101 58 200 0.0 2.0 0.00 0.06 0.00 61 1021.0
20260901214553 58 228 1.0 4.0 0.00 0.06 0.06 61 1021.2
20260901213053 58 243 1.0 3.0 0.00 0.06 0.06 61 1021.1
20260901211555 59 226 0.0 3.0 0.00 0.06 0.06 60 1021.0
20260901210058 59 238 0.0 4.0 0.00 0.06 0.06 59 1021.0
20260901204549 59 221 1.0 3.0 0.00 0.06 0.06 59 1021.0
20260901203051 59 219 0.0 3.0 0.00 0.06 0.06 59 1021.1
20260901201546 60 243 0.0 3.0 0.00 0.06 0.06 59 1021.4
20260901200054 60 240 0.0 2.0 0.00 0.06 0.06 60 1021.4
20260901194600 61 212 0.0 2.0 0.00 0.06 0.06 58 1021.3
20260901193040 61 229 0.0 2.0 0.00 0.06 0.06 58 1021.3
20260901191543 62 221 0.0 3.0 0.00 0.06 0.06 57 1021.2
20260901190054 63 247 0.0 3.0 0.00 0.06 0.06 56 1021.1
20260901184539 63 243 1.0 3.0 0.00 0.06 0.06 55 1020.9
20260901183043 64 236 0.0 3.0 0.00 0.06 0.06 54 1020.9
20260901181546 65 208 0.0 5.0 0.00 0.06 0.06 52 1020.9
20260901180037 65 250 1.0 7.0 0.00 0.06 0.06 51 1020.9
20260901174518 66 249 1.0 5.0 0.00 0.06 0.06 50 1020.9
20260901173017 67 266 3.0 8.0 0.00 0.06 0.06 50 1021.0
20260901171517 68 269 2.0 6.0 0.00 0.06 0.06 50 1021.1
20260901170016 69 268 2.0 9.0 0.00 0.06 0.06 50 1021.2
20260901164515 69 264 2.0 10.0 0.00 0.06 0.06 49 1021.1
20260901163014 69 271 3.0 9.0 0.00 0.06 0.06 47 1021.2
20260901161512 69 292 1.0 7.0 0.00 0.06 0.06 51 1021.3
20260901160011 69 323 2.0 5.0 0.00 0.06 0.06 52 1021.2
20260901154511 69 283 2.0 5.0 0.00 0.06 0.06 52 1021.2
20260901153018 69 296 1.0 8.0 0.00 0.06 0.06 53 1021.2
20260901151508 68 243 1.0 9.0 0.00 0.06 0.06 53 1021.1